Location: Nemiskam
(49.4820°N, 111.2775°W)
Time: 10:13:03
(UTC+00:00)

N. Korean satellite - Visible Passes

Search period start: 05 December 2021 00:00
Search period end: 15 December 2021 00:00
Orbit: 446 x 495 km, 97.3° (Epoch: 04 December)

Date Brightness Start Highest point End Pass type
(mag) Time Alt. Az. Time Alt. Az. Time Alt. Az.
05 Dec 9.7 00:53:20 10° SW 00:55:24 15° W 00:57:28 10° NW visible
05 Dec 8.4 12:12:28 10° NE 12:15:27 28° E 12:18:26 10° SSE visible
05 Dec 7.6 13:45:54 10° NNW 13:48:32 21° WNW 13:51:09 10° WSW visible
06 Dec 8.7 00:23:34 10° SSW 00:26:41 29° W 00:29:47 10° NNW visible
06 Dec 9.6 11:44:51 10° ENE 11:46:43 14° E 11:48:36 10° SE visible
06 Dec 6.7 13:16:55 10° N 13:20:09 43° WNW 13:23:23 10° SW visible
07 Dec 6.4 12:48:16 10° NNE 12:51:40 82° ESE 12:55:03 10° SSW visible
08 Dec 9.9 01:01:38 10° WSW 01:03:04 12° W 01:04:30 10° WNW visible
08 Dec 8.0 12:19:55 10° NNE 12:23:04 35° E 12:26:12 10° SSE visible
08 Dec 7.9 13:53:41 10° NNW 13:56:02 18° WNW 13:58:23 10° WSW visible
09 Dec 9.1 00:31:24 10° SSW 00:34:18 24° W 00:37:11 10° NW visible
09 Dec 9.3 11:52:02 10° NE 11:54:20 17° E 11:56:38 10° SE visible
09 Dec 6.9 13:24:32 10° N 13:27:40 35° WNW 13:30:47 10° SW visible
10 Dec 7.5 00:02:13 10° S 00:05:37 52° W 00:09:00 10° NNW visible
10 Dec 7.2 12:55:47 10° N 13:00:21 38° SSW 13:02:35 10° SSW visible
11 Dec 8.3 12:27:19 10° NNE 12:32:12 25° SSE 12:33:50 10° S visible
11 Dec 8.5 14:01:27 10° NNW 14:06:17 - WSW 14:01:58 12° NW visible
12 Dec 9.4 00:39:13 10° SW 00:41:51 20° W 00:44:27 10° NW visible
12 Dec 9.4 12:03:49 13° SE 12:03:49 13° SE 12:04:29 10° SE visible
12 Dec 8.6 13:32:08 10° N 13:37:55 11° SW 13:38:05 10° SW visible
13 Dec 8.0 00:09:49 10° S 00:13:06 41° W 00:16:24 10° NNW visible
13 Dec 8.7 13:03:15 10° N 13:09:27 14° SSW 13:10:00 10° SSW visible
14 Dec 9.0 12:40:55 13° S 12:40:55 13° S 12:41:23 10° S visible
14 Dec9.014:15:01WSW14:15:01WSW14:08:18NNWvisible
